DW0314 Weather Reports


time (UTC)temp
F
wind
direction
speed
knots
gust
knots
rain 1hr
in
rain 24hr
in
rain mn
in
humidity
%
barometer
mb
20260505041537 66 338 10.4 17.4 0.00 0.00 0.00 39 1004.3
20260505040035 66 355 7.0 15.6 0.00 0.00 0.00 39 1003.8
20260505034536 67 350 8.7 13.9 0.00 0.00 0.00 39 1004.2
20260505033036 69 355 7.8 15.6 0.00 0.00 0.00 38 1003.7
20260505031532 69 12 9.6 15.6 0.00 0.00 0.00 38 1003.4
20260505030031 70 9 6.1 11.3 0.00 0.00 0.00 41 1002.9
20260505024540 71 338 7.8 13.0 0.00 0.00 0.00 43 1002.3
20260505023034 71 345 5.2 11.3 0.00 0.00 0.00 47 1002.0
20260505021536 71 345 2.6 7.8 0.00 0.00 0.00 58 1001.7
20260505020031 73 229 0.0 0.0 0.00 0.00 0.00 55 1001.0
20260505014537 73 161 0.0 1.7 0.00 0.00 0.00 55 1000.9
20260505013030 73 161 0.0 0.9 0.00 0.00 0.00 55 1000.7
20260505011527 74 161 0.0 0.0 0.00 0.00 0.00 54 1000.6
20260505010027 75 161 0.9 2.6 0.00 0.00 0.00 52 1000.1
20260505004527 77 159 0.9 3.5 0.00 0.00 0.00 50 1000.1
20260505003026 77 169 0.9 3.5 0.00 0.00 0.00 47 1000.3
20260505001533 78 197 2.6 6.1 0.00 0.00 0.00 45 1000.4
20260505000032 79 157 3.5 7.8 0.00 0.00 0.00 42 1000.4
20260504234524 79 170 4.3 7.8 0.00 0.00 0.00 43 1000.4
20260504233025 79 195 6.1 8.7 0.00 0.00 0.00 44 1000.4
20260504231529 79 188 6.1 9.6 0.00 0.00 0.00 44 1000.4
20260504230022 79 194 6.1 13.9 0.00 0.00 0.00 43 1000.3
20260504224526 80 184 6.1 8.7 0.00 0.00 0.00 41 1000.2
20260504223021 81 202 3.5 6.1 0.00 0.00 0.00 37 1000.1
20260504221521 83 183 1.7 5.2 0.00 0.00 0.00 34 1000.2
20260504220020 83 189 3.5 8.7 0.00 0.00 0.00 32 1000.2
20260504214516 82 213 3.5 10.4 0.00 0.00 0.00 33 1000.2
20260504213015 82 195 4.3 8.7 0.00 0.00 0.00 35 1000.3
20260504211514 82 201 1.7 7.0 0.00 0.00 0.00 35 1000.4
20260504210012 81 147 3.5 6.1 0.00 0.00 0.00 37 1000.6
20260504204510 81 190 4.3 7.0 0.00 0.00 0.00 36 1000.8
20260504203019 81 231 2.6 7.0 0.00 0.00 0.00 36 1000.9
20260504201507 81 184 2.6 7.8 0.00 0.00 0.00 38 1001.1
20260504200007 82 210 1.7 8.7 0.00 0.00 0.00 36 1001.2
20260504194508 82 300 0.9 7.8 0.00 0.00 0.00 34 1001.3
20260504193006 82 116 0.0 3.5 0.00 0.00 0.00 35 1001.3
20260504191501 82 167 4.3 8.7 0.00 0.00 0.00 35 1001.4
20260504190128 83 252 0.9 7.0 0.00 0.00 0.00 34 1001.5
20260504184600 81 116 3.5 7.0 0.00 0.00 0.00 38 1001.4
20260504183056 82 206 3.5 7.8 0.00 0.00 0.00 38 1001.5
20260504181558 82 240 0.9 3.5 0.00 0.00 0.00 40 1001.7
20260504180137 80 247 2.6 6.1 0.00 0.00 0.00 37 1002.0
20260504174549 79 323 0.0 7.0 0.00 0.00 0.00 39 1001.8
20260504173056 78 209 1.7 6.1 0.00 0.00 0.00 41 1001.8
20260504171542 77 213 4.3 7.0 0.00 0.00 0.00 44 1002.0
20260504081554 61 213 0.0 0.0 0.00 0.00 0.00 59 1004.0
20260504050024 64 57 0.0 0.9 0.00 0.00 0.00 58 1005.8
20260504044522 66 57 0.0 3.5 0.00 0.00 0.00 55 1006.0
20260504043022 65 95 0.9 4.3 0.00 0.00 0.00 55 1006.0